Santa Barbara, CA

3:29 AM PDT on March 29, 2017 (GMT -0700)
Santa Barbara Municipal

Weather History for KSBA - December, 2012

Change the Weather History Date:

Sunday, December 9, 2012

  Actual Average Record
Temperature  
Mean Temperature 54 °F 52 °F  
Max Temperature 62 °F 64 °F 82 °F (1957)
Min Temperature 45 °F 40 °F 28 °F (1956)
Degree Days  
Heating Degree Days 11 13  
Month to date heating degree days 68 111  
Since 1 July heating degree days 404 589  
Cooling Degree Days 0 0  
Month to date cooling degree days 0 0  
Year to date cooling degree days 220 188  
Growing Degree Days 4 (Base 50)    
Moisture  
Dew Point 49 °F    
Average Humidity 84    
Maximum Humidity 100    
Minimum Humidity 67    
Precipitation  
Precipitation 0.00 in 0.07 in 1.11 in (1954)
Month to date precipitation 1.53 0.62  
Year to date precipitation 10.30 15.44  
Since 1 July precipitation 3.60  
Sea Level Pressure  
Sea Level Pressure 30.03 in    
Wind  
Wind Speed 3 mph (NW)    
Max Wind Speed 12 mph    
Max Gust Speed 18 mph    
Visibility 3 miles    
Events      
T = Trace of Precipitation, MM = Missing Value Source: NWS Daily Summary

Daily Weather History Graph

Daily Weather History Graph

Search for Another Location

Airport or City:

Trip Planner

Search our weather history database for the weather conditions in past years. The results will help you decide how hot, cold, wet, or windy it might be!

Date:

Astronomy

Dec. 09, 2012 Rise Set
Actual Time 6:54 AM PST 4:49 PM PST
Civil Twilight 6:26 AM PST 5:17 PM PST
Nautical Twilight 5:55 AM PST 5:48 PM PST
Astronomical Twilight 5:24 AM PST 6:19 PM PST
Moon 2:40 AM PST (12/9) 1:53 PM PST (12/9)
Length of Visible Light 10h 50m
Length of Day
9h 54m
Waning Crescent, 17% of the Moon is Illuminated
Dec 9
Waning Crescent
Dec 13
New
Dec 19
First Quarter
Dec 28
Full
Jan 4
Last Quarter

Hourly Weather History & Observations

Time (PST) Temp. Dew Point Humidity Pressure Visibility Wind Dir Wind Speed Gust Speed Precip Events Conditions
12:53 AM 48.9 °F 46.9 °F 93% 29.96 in 5.0 mi Calm Calm - N/A   Clear
1:53 AM 48.0 °F 45.0 °F 89% 29.96 in 7.0 mi Calm Calm - N/A   Clear
2:53 AM 46.0 °F 44.1 °F 93% 29.97 in 4.0 mi Calm Calm - N/A   Partly Cloudy
3:05 AM 46.4 °F 44.6 °F 93% 29.97 in 4.0 mi Calm Calm - N/A   Mostly Cloudy
3:53 AM 50.0 °F 46.9 °F 89% 29.97 in 4.0 mi Calm Calm - N/A   Overcast
4:38 AM 53.6 °F 51.8 °F 94% 29.98 in 2.5 mi Calm Calm - N/A   Overcast
4:53 AM 52.0 °F 50.0 °F 93% 29.99 in 2.5 mi Calm Calm - N/A   Overcast
5:10 AM 51.8 °F 50.0 °F 94% 30.00 in 2.5 mi Calm Calm - N/A   Overcast
5:53 AM 54.0 °F 52.0 °F 93% 30.01 in 2.5 mi NE 4.6 mph - N/A   Overcast
6:32 AM 53.6 °F 51.8 °F 94% 30.01 in 3.0 mi NE 3.5 mph - N/A   Overcast
6:53 AM 54.0 °F 51.1 °F 90% 30.01 in 2.5 mi ENE 4.6 mph - N/A   Overcast
7:53 AM 54.0 °F 50.0 °F 86% 30.04 in 2.5 mi NE 8.1 mph - N/A   Overcast
8:53 AM 55.9 °F 51.1 °F 84% 30.06 in 2.5 mi North 6.9 mph - N/A   Haze
9:53 AM 57.0 °F 51.1 °F 81% 30.07 in 2.0 mi Calm Calm - N/A   Haze
10:16 AM 57.2 °F 51.8 °F 82% 30.07 in 5.0 mi Calm Calm - N/A   Haze
11:53 AM 60.1 °F 52.0 °F 75% 30.04 in 4.0 mi Variable 3.5 mph - N/A   Haze
12:53 PM 61.0 °F 52.0 °F 72% 30.02 in 3.0 mi WSW 6.9 mph - N/A   Haze
1:53 PM 62.1 °F 52.0 °F 70% 30.00 in 5.0 mi West 9.2 mph - N/A   Haze
2:53 PM 61.0 °F 53.1 °F 75% 30.00 in 3.0 mi WSW 9.2 mph - N/A   Haze
3:53 PM 60.1 °F 53.1 °F 78% 30.02 in 5.0 mi WSW 5.8 mph - N/A   Haze
4:53 PM 57.0 °F 52.0 °F 83% 30.03 in 4.0 mi WSW 4.6 mph - N/A   Haze
5:53 PM 55.0 °F 51.1 °F 86% 30.05 in 4.0 mi Calm Calm - N/A   Clear
6:53 PM 52.0 °F 51.1 °F 97% 30.06 in 3.0 mi Calm Calm - N/A   Clear
7:53 PM 50.0 °F 48.0 °F 93% 30.07 in 3.0 mi Calm Calm - N/A   Clear
8:53 PM 48.0 °F 46.9 °F 96% 30.09 in 3.0 mi NNW 3.5 mph - N/A   Clear
9:53 PM 48.0 °F 46.0 °F 93% 30.09 in 3.0 mi Calm Calm - N/A   Clear
10:53 PM 48.0 °F 46.0 °F 93% 30.11 in 3.0 mi Calm Calm - N/A   Clear
11:19 PM 48.2 °F 46.4 °F 93% 30.11 in 2.5 mi Calm Calm - N/A   Clear
11:43 PM 46.4 °F 44.6 °F 93% 30.11 in 1.5 mi Calm Calm - N/A   Clear
11:53 PM 46.0 °F 45.0 °F 96% 30.12 in 1.8 mi Calm Calm - N/A   Clear